﻿測定場所 (Monitoring sites),日付 (Measurement date),時間 (Measurement time),線量率 最大値 (max) μGy/h,線量率 最小値 (min) μGy/h,線量率 平均値 (average) μGy/h,
足立 (Adachi),2020-05-31,23:01～24:00,0.0312,0.0279,0.0295,
足立 (Adachi),2020-05-31,22:01～23:00,0.0315,0.0285,0.0298,
足立 (Adachi),2020-05-31,21:01～22:00,0.0317,0.0282,0.0297,
足立 (Adachi),2020-05-31,20:01～21:00,0.0319,0.0279,0.0296,
足立 (Adachi),2020-05-31,19:01～20:00,0.0309,0.0275,0.0296,
足立 (Adachi),2020-05-31,18:01～19:00,0.0321,0.0275,0.0296,
足立 (Adachi),2020-05-31,17:01～18:00,0.0311,0.0277,0.0294,
足立 (Adachi),2020-05-31,16:01～17:00,0.0312,0.0280,0.0297,
足立 (Adachi),2020-05-31,15:01～16:00,0.0318,0.0278,0.0297,
足立 (Adachi),2020-05-31,14:01～15:00,0.0317,0.0281,0.0297,
足立 (Adachi),2020-05-31,13:01～14:00,0.0318,0.0273,0.0295,
足立 (Adachi),2020-05-31,12:01～13:00,0.0315,0.0275,0.0292,
足立 (Adachi),2020-05-31,11:01～12:00,0.0315,0.0281,0.0296,
足立 (Adachi),2020-05-31,10:01～11:00,0.0313,0.0274,0.0295,
足立 (Adachi),2020-05-31,09:01～10:00,0.0316,0.0275,0.0295,
足立 (Adachi),2020-05-31,08:01～09:00,0.0319,0.0279,0.0297,
足立 (Adachi),2020-05-31,07:01～08:00,0.0315,0.0278,0.0297,
足立 (Adachi),2020-05-31,06:01～07:00,0.0318,0.0272,0.0297,
足立 (Adachi),2020-05-31,05:01～06:00,0.0311,0.0279,0.0297,
足立 (Adachi),2020-05-31,04:01～05:00,0.0303,0.0269,0.0288,
足立 (Adachi),2020-05-31,03:01～04:00,0.0318,0.0275,0.0298,
足立 (Adachi),2020-05-31,02:01～03:00,0.0314,0.0282,0.0295,
足立 (Adachi),2020-05-31,01:01～02:00,0.0318,0.0277,0.0298,
足立 (Adachi),2020-05-31,00:01～01:00,0.0320,0.0271,0.0294,
足立 (Adachi),2020-05-30,23:01～24:00,0.0317,0.0270,0.0299,
足立 (Adachi),2020-05-30,22:01～23:00,0.0318,0.0278,0.0297,
足立 (Adachi),2020-05-30,21:01～22:00,0.0314,0.0272,0.0295,
足立 (Adachi),2020-05-30,20:01～21:00,0.0321,0.0277,0.0297,
足立 (Adachi),2020-05-30,19:01～20:00,0.0318,0.0282,0.0298,
足立 (Adachi),2020-05-30,18:01～19:00,0.0310,0.0278,0.0295,
足立 (Adachi),2020-05-30,17:01～18:00,0.0318,0.0274,0.0297,
足立 (Adachi),2020-05-30,16:01～17:00,0.0320,0.0276,0.0298,
足立 (Adachi),2020-05-30,15:01～16:00,0.0318,0.0277,0.0296,
足立 (Adachi),2020-05-30,14:01～15:00,0.0317,0.0274,0.0292,
足立 (Adachi),2020-05-30,13:01～14:00,0.0310,0.0276,0.0296,
足立 (Adachi),2020-05-30,12:01～13:00,0.0324,0.0279,0.0296,
足立 (Adachi),2020-05-30,11:01～12:00,0.0311,0.0272,0.0294,
足立 (Adachi),2020-05-30,10:01～11:00,0.0311,0.0272,0.0294,
足立 (Adachi),2020-05-30,09:01～10:00,0.0311,0.0274,0.0294,
足立 (Adachi),2020-05-30,08:01～09:00,0.0312,0.0277,0.0299,
足立 (Adachi),2020-05-30,07:01～08:00,0.0324,0.0281,0.0301,
足立 (Adachi),2020-05-30,06:01～07:00,0.0320,0.0287,0.0305,
足立 (Adachi),2020-05-30,05:01～06:00,0.0327,0.0282,0.0299,
足立 (Adachi),2020-05-30,04:01～05:00,0.0315,0.0282,0.0298,
足立 (Adachi),2020-05-30,03:01～04:00,0.0318,0.0269,0.0293,
足立 (Adachi),2020-05-30,02:01～03:00,0.0308,0.0278,0.0295,
足立 (Adachi),2020-05-30,01:01～02:00,0.0318,0.0272,0.0295,
足立 (Adachi),2020-05-30,00:01～01:00,0.0314,0.0261,0.0292,
足立 (Adachi),2020-05-29,23:01～24:00,0.0312,0.0274,0.0290,
足立 (Adachi),2020-05-29,22:01～23:00,0.0309,0.0266,0.0294,
足立 (Adachi),2020-05-29,21:01～22:00,0.0312,0.0272,0.0292,
足立 (Adachi),2020-05-29,20:01～21:00,0.0319,0.0267,0.0291,
足立 (Adachi),2020-05-29,19:01～20:00,0.0308,0.0268,0.0291,
足立 (Adachi),2020-05-29,18:01～19:00,0.0315,0.0270,0.0292,
足立 (Adachi),2020-05-29,17:01～18:00,0.0313,0.0278,0.0293,
足立 (Adachi),2020-05-29,16:01～17:00,0.0314,0.0277,0.0292,
足立 (Adachi),2020-05-29,15:01～16:00,0.0312,0.0271,0.0293,
足立 (Adachi),2020-05-29,14:01～15:00,0.0317,0.0271,0.0293,
足立 (Adachi),2020-05-29,13:01～14:00,0.0314,0.0268,0.0293,
足立 (Adachi),2020-05-29,12:01～13:00,0.0313,0.0276,0.0292,
足立 (Adachi),2020-05-29,11:01～12:00,0.0313,0.0278,0.0294,
足立 (Adachi),2020-05-29,10:01～11:00,0.0307,0.0270,0.0292,
足立 (Adachi),2020-05-29,09:01～10:00,0.0312,0.0275,0.0291,
足立 (Adachi),2020-05-29,08:01～09:00,0.0314,0.0271,0.0292,
足立 (Adachi),2020-05-29,07:01～08:00,0.0315,0.0270,0.0293,
足立 (Adachi),2020-05-29,06:01～07:00,0.0307,0.0276,0.0292,
足立 (Adachi),2020-05-29,05:01～06:00,0.0309,0.0272,0.0291,
足立 (Adachi),2020-05-29,04:01～05:00,0.0314,0.0276,0.0293,
足立 (Adachi),2020-05-29,03:01～04:00,0.0310,0.0271,0.0291,
足立 (Adachi),2020-05-29,02:01～03:00,0.0309,0.0271,0.0292,
足立 (Adachi),2020-05-29,01:01～02:00,0.0316,0.0279,0.0294,
足立 (Adachi),2020-05-29,00:01～01:00,0.0329,0.0294,0.0312,
足立 (Adachi),2020-05-28,23:01～24:00,0.0359,0.0276,0.0331,
足立 (Adachi),2020-05-28,22:01～23:00,0.0310,0.0273,0.0291,
足立 (Adachi),2020-05-28,21:01～22:00,0.0314,0.0272,0.0293,
足立 (Adachi),2020-05-28,20:01～21:00,0.0336,0.0275,0.0305,
足立 (Adachi),2020-05-28,19:01～20:00,0.0397,0.0313,0.0349,
足立 (Adachi),2020-05-28,18:01～19:00,0.0584,0.0370,0.0476,
足立 (Adachi),2020-05-28,17:01～18:00,0.0625,0.0468,0.0549,
足立 (Adachi),2020-05-28,16:01～17:00,0.0498,0.0269,0.0363,
足立 (Adachi),2020-05-28,15:01～16:00,0.0319,0.0274,0.0296,
足立 (Adachi),2020-05-28,14:01～15:00,0.0320,0.0270,0.0295,
足立 (Adachi),2020-05-28,13:01～14:00,0.0320,0.0267,0.0294,
足立 (Adachi),2020-05-28,12:01～13:00,0.0311,0.0280,0.0295,
足立 (Adachi),2020-05-28,11:01～12:00,0.0314,0.0279,0.0297,
足立 (Adachi),2020-05-28,10:01～11:00,0.0320,0.0274,0.0299,
足立 (Adachi),2020-05-28,09:01～10:00,0.0321,0.0276,0.0298,
足立 (Adachi),2020-05-28,08:01～09:00,0.0324,0.0273,0.0297,
足立 (Adachi),2020-05-28,07:01～08:00,0.0314,0.0278,0.0296,
足立 (Adachi),2020-05-28,06:01～07:00,0.0324,0.0279,0.0297,
足立 (Adachi),2020-05-28,05:01～06:00,0.0321,0.0274,0.0299,
足立 (Adachi),2020-05-28,04:01～05:00,0.0314,0.0281,0.0297,
足立 (Adachi),2020-05-28,03:01～04:00,0.0322,0.0276,0.0298,
足立 (Adachi),2020-05-28,02:01～03:00,0.0319,0.0281,0.0299,
足立 (Adachi),2020-05-28,01:01～02:00,0.0317,0.0275,0.0295,
足立 (Adachi),2020-05-28,00:01～01:00,0.0317,0.0278,0.0296,
足立 (Adachi),2020-05-27,23:01～24:00,0.0325,0.0276,0.0297,
足立 (Adachi),2020-05-27,22:01～23:00,0.0313,0.0275,0.0297,
足立 (Adachi),2020-05-27,21:01～22:00,0.0318,0.0274,0.0297,
足立 (Adachi),2020-05-27,20:01～21:00,0.0322,0.0272,0.0298,
足立 (Adachi),2020-05-27,19:01～20:00,0.0319,0.0276,0.0297,
足立 (Adachi),2020-05-27,18:01～19:00,0.0312,0.0279,0.0295,
足立 (Adachi),2020-05-27,17:01～18:00,0.0316,0.0276,0.0295,
足立 (Adachi),2020-05-27,16:01～17:00,0.0327,0.0284,0.0300,
足立 (Adachi),2020-05-27,15:01～16:00,0.0312,0.0271,0.0294,
足立 (Adachi),2020-05-27,14:01～15:00,0.0308,0.0273,0.0291,
足立 (Adachi),2020-05-27,13:01～14:00,0.0311,0.0277,0.0294,
足立 (Adachi),2020-05-27,12:01～13:00,0.0312,0.0272,0.0293,
足立 (Adachi),2020-05-27,11:01～12:00,0.0315,0.0279,0.0296,
足立 (Adachi),2020-05-27,10:01～11:00,0.0315,0.0275,0.0298,
足立 (Adachi),2020-05-27,09:01～10:00,0.0315,0.0276,0.0297,
足立 (Adachi),2020-05-27,08:01～09:00,0.0312,0.0265,0.0289,
足立 (Adachi),2020-05-27,07:01～08:00,0.0304,0.0268,0.0285,
足立 (Adachi),2020-05-27,06:01～07:00,0.0292,0.0257,0.0278,
足立 (Adachi),2020-05-27,05:01～06:00,0.0313,0.0259,0.0284,
足立 (Adachi),2020-05-27,04:01～05:00,0.0325,0.0277,0.0298,
足立 (Adachi),2020-05-27,03:01～04:00,0.0322,0.0276,0.0294,
足立 (Adachi),2020-05-27,02:01～03:00,0.0317,0.0271,0.0290,
足立 (Adachi),2020-05-27,01:01～02:00,0.0305,0.0276,0.0292,
足立 (Adachi),2020-05-27,00:01～01:00,0.0309,0.0271,0.0292,
足立 (Adachi),2020-05-26,23:01～24:00,0.0313,0.0277,0.0292,
足立 (Adachi),2020-05-26,22:01～23:00,0.0317,0.0278,0.0297,
足立 (Adachi),2020-05-26,21:01～22:00,0.0322,0.0285,0.0305,
足立 (Adachi),2020-05-26,20:01～21:00,0.0359,0.0307,0.0327,
足立 (Adachi),2020-05-26,19:01～20:00,0.0389,0.0335,0.0362,
足立 (Adachi),2020-05-26,18:01～19:00,0.0406,0.0350,0.0374,
足立 (Adachi),2020-05-26,17:01～18:00,0.0372,0.0301,0.0345,
足立 (Adachi),2020-05-26,16:01～17:00,0.0374,0.0318,0.0339,
足立 (Adachi),2020-05-26,15:01～16:00,0.0371,0.0323,0.0345,
足立 (Adachi),2020-05-26,14:01～15:00,0.0348,0.0272,0.0305,
足立 (Adachi),2020-05-26,13:01～14:00,0.0310,0.0272,0.0290,
足立 (Adachi),2020-05-26,12:01～13:00,0.0321,0.0273,0.0287,
足立 (Adachi),2020-05-26,11:01～12:00,0.0305,0.0260,0.0288,
足立 (Adachi),2020-05-26,10:01～11:00,0.0308,0.0274,0.0289,
足立 (Adachi),2020-05-26,09:01～10:00,0.0320,0.0269,0.0292,
足立 (Adachi),2020-05-26,08:01～09:00,0.0312,0.0270,0.0289,
足立 (Adachi),2020-05-26,07:01～08:00,0.0309,0.0273,0.0289,
足立 (Adachi),2020-05-26,06:01～07:00,0.0303,0.0266,0.0287,
足立 (Adachi),2020-05-26,05:01～06:00,0.0313,0.0272,0.0292,
足立 (Adachi),2020-05-26,04:01～05:00,0.0316,0.0275,0.0291,
足立 (Adachi),2020-05-26,03:01～04:00,0.0309,0.0272,0.0290,
足立 (Adachi),2020-05-26,02:01～03:00,0.0316,0.0276,0.0290,
足立 (Adachi),2020-05-26,01:01～02:00,0.0313,0.0272,0.0291,
足立 (Adachi),2020-05-26,00:01～01:00,0.0313,0.0281,0.0293,
足立 (Adachi),2020-05-25,23:01～24:00,0.0307,0.0274,0.0290,
足立 (Adachi),2020-05-25,22:01～23:00,0.0313,0.0277,0.0289,
足立 (Adachi),2020-05-25,21:01～22:00,0.0310,0.0276,0.0290,
足立 (Adachi),2020-05-25,20:01～21:00,0.0308,0.0272,0.0292,
足立 (Adachi),2020-05-25,19:01～20:00,0.0307,0.0268,0.0290,
足立 (Adachi),2020-05-25,18:01～19:00,0.0310,0.0266,0.0289,
足立 (Adachi),2020-05-25,17:01～18:00,0.0313,0.0271,0.0290,
足立 (Adachi),2020-05-25,16:01～17:00,0.0308,0.0274,0.0290,
足立 (Adachi),2020-05-25,15:01～16:00,0.0307,0.0266,0.0287,
足立 (Adachi),2020-05-25,14:01～15:00,0.0305,0.0267,0.0286,
足立 (Adachi),2020-05-25,13:01～14:00,0.0307,0.0272,0.0288,
足立 (Adachi),2020-05-25,12:01～13:00,0.0309,0.0268,0.0287,
足立 (Adachi),2020-05-25,11:01～12:00,0.0305,0.0269,0.0286,
足立 (Adachi),2020-05-25,10:01～11:00,0.0307,0.0261,0.0284,
足立 (Adachi),2020-05-25,09:01～10:00,0.0307,0.0264,0.0284,
足立 (Adachi),2020-05-25,08:01～09:00,0.0309,0.0255,0.0283,
足立 (Adachi),2020-05-25,07:01～08:00,0.0309,0.0254,0.0283,
足立 (Adachi),2020-05-25,06:01～07:00,0.0311,0.0262,0.0285,
足立 (Adachi),2020-05-25,05:01～06:00,0.0303,0.0260,0.0281,
足立 (Adachi),2020-05-25,04:01～05:00,0.0299,0.0265,0.0286,
足立 (Adachi),2020-05-25,03:01～04:00,0.0305,0.0270,0.0286,
足立 (Adachi),2020-05-25,02:01～03:00,0.0307,0.0266,0.0284,
足立 (Adachi),2020-05-25,01:01～02:00,0.0304,0.0261,0.0283,
足立 (Adachi),2020-05-25,00:01～01:00,0.0304,0.0264,0.0285,
